Location: ?????
(42.2640°N, 43.4211°E)
Time: 15:24:32
(UTC+00:00)

Meteor 2-16 Rocket - Pass Details

Date: 07 August 2020
Orbit: 942 x 956 km, 82.6° (Epoch: 19 September)

Event Time Altitude Azimuth Distance (km) Brightness Sun altitude
Rises 01:00:04 0° 349° (N) 3,643 7.8 -11.4°
Reaches altitude 10° 01:02:35 10° 347° (NNW) 2,694 7.1 -11.0°
Maximum altitude 01:08:42 69° 266° (W) 1,019 4.4 -10.1°
Drops below altitude 10° 01:14:46 10° 184° (S) 2,676 6.5 -9.1°
Sets 01:17:16 0° 182° (S) 3,617 7.2 -8.7°
